Location: Sweet Grass
(48.9965°N, 111.9649°W)
Time: 12:02:18
(UTC+00:00)

EO-79 - Visible Passes

Search period start: 28 March 2023 00:00
Search period end: 07 April 2023 00:00
Orbit: 581 x 596 km, 98.0° (Epoch: 27 March)

Date Brightness Start Highest point End Pass type
(mag) Time Alt. Az. Time Alt. Az. Time Alt. Az.
28 Mar ? 08:35:07 10° NE 08:35:21 11° NE 08:35:21 11° NE visible
28 Mar ? 10:09:27 10° N 10:11:52 32° N 10:11:52 32° N visible
29 Mar ? 08:42:23 10° NE 08:43:08 13° NE 08:43:08 13° NE visible
29 Mar ? 10:17:05 10° N 10:19:39 33° NNW 10:19:39 33° NNW visible
30 Mar ? 08:49:44 10° NE 08:50:54 15° NE 08:50:54 15° NE visible
30 Mar ? 10:24:43 10° N 10:27:25 32° NNW 10:27:25 32° NNW visible
31 Mar ? 08:57:06 10° NE 08:58:39 18° NE 08:58:39 18° NE visible
31 Mar ? 10:32:21 10° N 10:35:10 30° NW 10:35:10 30° NW visible
01 Apr ? 09:04:29 10° NNE 09:06:23 22° NE 09:06:23 22° NE visible
01 Apr ? 10:40:00 10° N 10:42:54 28° NW 10:42:54 28° NW visible
02 Apr ? 09:11:54 10° NNE 09:14:06 25° NE 09:14:06 25° NE visible
02 Apr ? 10:47:39 10° N 10:50:37 25° NW 10:50:37 25° NW visible
03 Apr ? 09:19:19 10° NNE 09:21:48 30° NE 09:21:48 30° NE visible
03 Apr ? 10:55:18 10° NNW 10:58:19 22° WNW 10:58:19 22° WNW visible
04 Apr ? 09:26:44 10° NNE 09:29:29 36° NE 09:29:29 36° NE visible
04 Apr ? 11:02:58 10° NNW 11:05:56 19° WNW 11:05:59 19° WNW visible
05 Apr ? 09:34:10 10° NNE 09:37:09 42° NE 09:37:09 42° NE visible
05 Apr ? 11:10:41 10° NNW 11:13:18 17° WNW 11:13:40 16° WNW visible
06 Apr ? 09:41:36 10° NNE 09:44:48 50° NE 09:44:48 50° NE visible
06 Apr ? 11:18:26 10° NNW 11:20:41 14° WNW 11:21:18 14° WNW visible
